Weather in Gainesville

United States     29°39′06″N   82°19′30″W
temp.,
°C
wind,
m/s
gust,
m/s
humid.,
%
clouds,
%
prec.,
mm/h
press.,
hPa
HPBL,
m
24 may, tue
tue2423:00+24nne1387100 0.1 101898
02:00+23ese268987 0.1 1017180
05:00+22ese149752 0.0 1016137
08:00+25se258136 0.0 1018329
11:00+31sse235085 0.0 10181613
14:00+35sse333284 0.0 10163013
17:00+35s4327100 0.0 10142779
20:00+29ese2454100 0.0 1016257
25 may, wed
wed2523:00+25ese276537 0.0 1018354
02:00+22ese277394 0.0 1018297
05:00+21ese288898 0.0 1017266
08:00+23se2881100 0.0 1019367
11:00+29se365286 0.0 10191539
14:00+32se463792 0.0 10182029
17:00+33e473461 0.0 10162571
20:00+27e5957100 0.0 1017819
26 may, thu
thu2623:00+24se4117176 0.0 1019706
02:00+23se21088100 0.1 1019515
05:00+22ese3991100 0.0 1017415
08:00+23se2984100 0.0 1019564
11:00+25se277592 0.0 1019773
14:00+28s366591 1.2 10181032
17:00+34sse363018 0.0 10152763
20:00+28ese265060 0.0 1015247
27 may, fri
fri2723:00+25sse3768100 0.0 1016322
02:00+23s2581100 0.2 1016140
05:00+22s2891100 1.4 1015244
08:00+24sse388533 1.9 1016393
11:00+30ssw4753100 0.4 10151713
14:00+33sw5739100 0.9 10132551
17:00+30sw5748100 0.0 10121591
20:00+27sw476166 0.0 1012835
28 may, sat
sat2823:00+24ssw27770 0.0 1013385
02:00+21sw24931 0.6 1012103
05:00+21ssw12962 0.1 101263
08:00+23sw12850 0.1 1012197
11:00+29wsw36462 0.0 10121724
14:00+34sw48260 0.0 10102933
17:00+32sw56280 0.0 10092687
20:00+27sw48510 0.0 1010725